{"data":{"norad_id":52306,"intl_designator":"2022-041AX","name":"STARLINK-3747","alt_names":[],"object_type":"PAYLOAD","status":"ACTIVE","operator":null,"country":"US","launch_date":"2022-04-21","launch_site_code":"AFETR","launch_vehicle":null,"mission":null,"orbit_class":"UNKNOWN","rcs_meters":null,"size_class":null,"mass_kg":null,"dimensions":null,"purposes":["comms"],"wikipedia_slug":null,"has_3d_model":false,"image_url":null,"decayed_at":null,"tle_current":{"epoch":"2026-05-25T03:32:19.741344Z","epoch_age_seconds":65485,"freshness":"FRESH","line1":"1 52306U 22041AX  26145.14745071  .00001468  00000+0  11025-3 0  9992","line2":"2 52306  53.2138 105.8898 0000971  88.9405 271.1698 15.08845325227400","mean_motion":15.08845325,"eccentricity":9.71e-5,"inclination_deg":53.2138,"raan_deg":105.8898,"arg_perigee_deg":88.9405,"mean_anomaly_deg":271.1698,"bstar":0.00011025,"rev_number":22740,"period_min":95.437217860618,"perigee_km":539.05538801194,"apogee_km":540.39883722261,"semimajor_km":6917.8641126173,"source":"CELESTRAK","updated_at":"2026-05-25T13:38:17.110348Z"}}}